Dades meteomassalio
Diari Summary for Setembre 3, 2017 Units:  Metric    English   Both
« Previous Day
Next Day »
Diari Semanal Mensual Anual Personalitzat
  Maxima: Minima: Mijana:
Temperatura: 27.2 °C 9.4 °C 17.5 °C
Rosada: 12.2 °C 3.3 °C 8.4 °C
Humitat: 90 % 27 % 60 %
Velocitat del vent: 20.4 km/h 0.0 km/h 2.3 km/h
Racha vent: 20.4 km/h - -
Vent:- - WSW
Pressio: 1022.6 hPa 1014.4 hPa -
Pluja: 0.5 mm    
Historical Graphs
 
 
Tabular Data for Setembre 3, 2017
Time Temperature Dew Point Pressure Wind Wind Speed Wind Gust Humidity Rainfall Rate (Hourly) solar Conditions
00:02 12.2 °C 6.5 °C 1022.2 hPa Calm     68 % 0.0 mm 0.0 W/m2 CLR
00:07 12.2 °C 6.7 °C 1022.6 hPa Calm     69 % 0.0 mm 0.0 W/m2 CLR
00:12 11.7 °C 6.4 °C 1022.6 hPa Calm     70 % 0.0 mm 0.0 W/m2 CLR
00:17 11.7 °C 6.6 °C 1022.6 hPa Calm     71 % 0.0 mm 0.0 W/m2 CLR
00:22 11.7 °C 6.8 °C 1022.2 hPa Calm     72 % 0.0 mm 0.0 W/m2 CLR
00:27 11.7 °C 7.2 °C 1022.2 hPa Calm     74 % 0.0 mm 0.0 W/m2 CLR
00:32 11.7 °C 7.2 °C 1022.2 hPa Calm     74 % 0.0 mm 0.0 W/m2 CLR
00:37 11.1 °C 6.8 °C 1022.2 hPa Calm     75 % 0.0 mm 0.0 W/m2 CLR
00:42 11.1 °C 6.8 °C 1022.2 hPa Calm     75 % 0.0 mm 0.0 W/m2 CLR
00:47 11.1 °C 6.8 °C 1022.2 hPa Calm     75 % 0.0 mm 0.0 W/m2 CLR
00:52 11.1 °C 6.8 °C 1022.2 hPa Calm     75 % 0.0 mm 0.0 W/m2 CLR
00:57 11.1 °C 6.8 °C 1022.2 hPa Calm     75 % 0.0 mm 0.0 W/m2 CLR
01:02 11.1 °C 6.8 °C 1022.2 hPa Calm     75 % 0.0 mm 0.0 W/m2 CLR
01:07 11.1 °C 7.1 °C 1022.2 hPa Calm     76 % 0.0 mm 0.0 W/m2 CLR
01:12 11.1 °C 7.2 °C 1022.2 hPa Calm     77 % 0.0 mm 0.0 W/m2 CLR
01:17 11.1 °C 7.2 °C 1022.2 hPa Calm     77 % 0.0 mm 0.0 W/m2 CLR
01:22 11.1 °C 7.2 °C 1021.9 hPa Calm     77 % 0.0 mm 0.0 W/m2 CLR
01:28 11.1 °C 7.2 °C 1021.9 hPa Calm     77 % 0.0 mm 0.0 W/m2 CLR
01:32 11.1 °C 7.2 °C 1021.9 hPa Calm     77 % 0.0 mm 0.0 W/m2 CLR
01:37 10.6 °C 6.9 °C 1021.9 hPa Calm     78 % 0.0 mm 0.0 W/m2 CLR
01:42 10.6 °C 6.9 °C 1021.9 hPa Calm     78 % 0.0 mm 0.0 W/m2 CLR
01:47 10.6 °C 6.7 °C 1021.9 hPa Calm     77 % 0.0 mm 0.0 W/m2 CLR
01:53 10.6 °C 6.9 °C 1021.9 hPa Calm     78 % 0.0 mm 0.0 W/m2 CLR
01:58 10.6 °C 6.9 °C 1021.9 hPa Calm     78 % 0.0 mm 0.0 W/m2 CLR
02:03 11.1 °C 7.6 °C 1021.9 hPa Calm     79 % 0.0 mm 0.0 W/m2 CLR
02:08 11.1 °C 7.6 °C 1021.6 hPa Calm     79 % 0.0 mm 0.0 W/m2 CLR
02:13 11.1 °C 7.8 °C 1021.6 hPa Calm     80 % 0.0 mm 0.0 W/m2 CLR
02:18 11.1 °C 7.8 °C 1021.6 hPa Calm     80 % 0.0 mm 0.0 W/m2 CLR
02:23 11.1 °C 7.8 °C 1021.6 hPa Calm     80 % 0.0 mm 0.0 W/m2 CLR
02:28 10.6 °C 7.2 °C 1021.6 hPa Calm     80 % 0.0 mm 0.0 W/m2 CLR
02:33 10.6 °C 7.2 °C 1021.6 hPa Calm     80 % 0.0 mm 0.0 W/m2 CLR
02:38 10.6 °C 7.2 °C 1021.2 hPa Calm     80 % 0.0 mm 0.0 W/m2 CLR
02:43 10.6 °C 7.2 °C 1021.2 hPa Calm     80 % 0.0 mm 0.0 W/m2 CLR
02:48 10.6 °C 7.2 °C 1021.2 hPa Calm     80 % 0.0 mm 0.0 W/m2 CLR
02:53 10.6 °C 7.2 °C 1021.2 hPa Calm     80 % 0.0 mm 0.0 W/m2 CLR
02:58 10.6 °C 7.4 °C 1021.2 hPa Calm     81 % 0.0 mm 0.0 W/m2 CLR
03:03 10.6 °C 7.4 °C 1021.2 hPa Calm     81 % 0.0 mm 0.0 W/m2 CLR
03:08 10.6 °C 7.4 °C 1021.2 hPa Calm     81 % 0.0 mm 0.0 W/m2 CLR
03:13 10.6 °C 7.6 °C 1021.2 hPa Calm     82 % 0.0 mm 0.0 W/m2 CLR
03:18 10.6 °C 7.6 °C 1021.2 hPa Calm     82 % 0.0 mm 0.0 W/m2 CLR
03:23 10.6 °C 7.6 °C 1021.2 hPa Calm     82 % 0.0 mm 0.0 W/m2 CLR
03:28 10.6 °C 7.6 °C 1021.2 hPa Calm     82 % 0.0 mm 0.0 W/m2 CLR
03:33 10.6 °C 7.6 °C 1021.2 hPa Calm     82 % 0.0 mm 0.0 W/m2 CLR
03:38 10.0 °C 6.9 °C 1021.2 hPa Calm     81 % 0.0 mm 0.0 W/m2 CLR
03:43 10.0 °C 6.9 °C 1021.2 hPa Calm     81 % 0.0 mm 0.0 W/m2 CLR
03:48 10.0 °C 7.1 °C 1021.2 hPa Calm     82 % 0.0 mm 0.0 W/m2 CLR
03:53 10.0 °C 7.1 °C 1021.2 hPa Calm     82 % 0.0 mm 0.0 W/m2 CLR
03:58 10.0 °C 7.2 °C 1020.9 hPa Calm     83 % 0.0 mm 0.0 W/m2 CLR
04:03 10.0 °C 7.2 °C 1020.9 hPa Calm     83 % 0.0 mm 0.0 W/m2 CLR
04:04 10.0 °C 7.2 °C 1020.9 hPa Calm     83 % 0.0 mm 0.0 W/m2 CLR
04:09 10.0 °C 7.2 °C 1020.9 hPa Calm     83 % 0.0 mm 0.0 W/m2 CLR
04:14 10.0 °C 7.4 °C 1020.9 hPa Calm     84 % 0.0 mm 0.0 W/m2 CLR
04:19 10.0 °C 7.4 °C 1020.9 hPa Calm     84 % 0.0 mm 0.0 W/m2 CLR
04:24 10.0 °C 7.4 °C 1020.9 hPa Calm     84 % 0.0 mm 0.0 W/m2 CLR
04:29 10.0 °C 7.6 °C 1020.9 hPa Calm     85 % 0.0 mm 0.0 W/m2 CLR
04:34 10.0 °C 7.6 °C 1020.9 hPa Calm     85 % 0.0 mm 0.0 W/m2 CLR
04:39 10.0 °C 7.6 °C 1020.9 hPa Calm     85 % 0.0 mm 0.0 W/m2 CLR
04:44 10.0 °C 7.6 °C 1020.9 hPa Calm     85 % 0.0 mm 0.0 W/m2 CLR
04:49 10.6 °C 8.1 °C 1020.9 hPa Calm     85 % 0.0 mm 0.0 W/m2 CLR
04:54 10.6 °C 8.3 °C 1020.5 hPa Calm     86 % 0.0 mm 0.0 W/m2 CLR
04:59 10.6 °C 8.3 °C 1020.5 hPa Calm     86 % 0.0 mm 0.0 W/m2 CLR
05:04 10.6 °C 8.3 °C 1020.5 hPa Calm     86 % 0.0 mm 0.0 W/m2 CLR
05:09 10.6 °C 8.5 °C 1020.5 hPa Calm     87 % 0.0 mm 0.0 W/m2 CLR
05:15 10.6 °C 8.5 °C 1020.5 hPa Calm     87 % 0.0 mm 0.0 W/m2 CLR
05:19 10.6 °C 8.5 °C 1020.5 hPa Calm     87 % 0.0 mm 0.0 W/m2 CLR
05:20 10.6 °C 8.5 °C 1020.5 hPa Calm     87 % 0.0 mm 0.0 W/m2 CLR
05:21 10.6 °C 8.5 °C 1020.5 hPa Calm     87 % 0.0 mm 0.0 W/m2 CLR
05:23 10.6 °C 8.5 °C 1020.5 hPa Calm     87 % 0.0 mm 0.0 W/m2 CLR
05:24 10.6 °C 8.5 °C 1020.5 hPa Calm     87 % 0.0 mm 0.0 W/m2 CLR
05:26 10.6 °C 8.5 °C 1020.5 hPa Calm     87 % 0.0 mm 0.0 W/m2 CLR
05:31 10.6 °C 8.5 °C 1020.5 hPa Calm     87 % 0.0 mm 0.0 W/m2 CLR
05:36 10.6 °C 8.5 °C 1020.2 hPa Calm     87 % 0.0 mm 0.0 W/m2 CLR
05:41 10.6 °C 8.7 °C 1020.2 hPa Calm     88 % 0.0 mm 0.0 W/m2 CLR
05:46 10.0 °C 8.1 °C 1020.2 hPa Calm     88 % 0.0 mm 0.0 W/m2 CLR
05:51 10.0 °C 7.9 °C 1019.9 hPa Calm     87 % 0.0 mm 0.0 W/m2 CLR
05:56 10.0 °C 8.1 °C 1020.2 hPa Calm     88 % 0.0 mm 0.0 W/m2 CLR
06:01 10.0 °C 8.1 °C 1020.2 hPa Calm     88 % 0.0 mm 0.0 W/m2 CLR
06:06 9.4 °C 7.7 °C 1020.2 hPa Calm     89 % 0.0 mm 0.0 W/m2 CLR
06:11 9.4 °C 7.7 °C 1020.2 hPa Calm     89 % 0.0 mm 0.0 W/m2 CLR
06:16 9.4 °C 7.7 °C 1019.9 hPa Calm     89 % 0.0 mm 0.0 W/m2 CLR
06:21 9.4 °C 7.7 °C 1019.9 hPa Calm     89 % 0.0 mm 0.0 W/m2 CLR
06:26 9.4 °C 7.7 °C 1019.5 hPa Calm     89 % 0.0 mm 0.0 W/m2 CLR
06:31 9.4 °C 7.7 °C 1019.9 hPa Calm     89 % 0.0 mm 0.0 W/m2 CLR
06:36 9.4 °C 7.7 °C 1019.9 hPa Calm     89 % 0.0 mm 0.0 W/m2 CLR
06:41 9.4 °C 7.7 °C 1019.9 hPa Calm     89 % 0.0 mm 0.0 W/m2 CLR
06:46 9.4 °C 7.7 °C 1019.9 hPa Calm     89 % 0.0 mm 0.0 W/m2 CLR
06:51 10.0 °C 8.3 °C 1019.9 hPa Calm     89 % 0.0 mm 0.0 W/m2 CLR
06:56 10.0 °C 8.3 °C 1019.9 hPa Calm     89 % 0.0 mm 0.0 W/m2 CLR
07:01 10.0 °C 8.3 °C 1019.9 hPa Calm     89 % 0.0 mm 0.0 W/m2 CLR
07:06 9.4 °C 7.7 °C 1019.9 hPa Calm     89 % 0.0 mm 0.0 W/m2 CLR
07:11 9.4 °C 7.7 °C 1019.9 hPa SSE 7.4 km/h 7.4 km/h 89 % 0.0 mm 0.0 W/m2 CLR
07:16 9.4 °C 7.9 °C 1019.9 hPa SSW 8.0 km/h 8.0 km/h 90 % 0.0 mm 0.0 W/m2 CLR
07:21 9.4 °C 7.9 °C 1019.9 hPa SSE 9.3 km/h 9.3 km/h 90 % 0.0 mm 0.0 W/m2 OVC
07:26 9.4 °C 7.7 °C 1020.2 hPa Calm     89 % 0.0 mm 0.0 W/m2 OVC
07:31 10.0 °C 8.3 °C 1019.9 hPa Calm     89 % 0.0 mm 0.0 W/m2 OVC
07:36 9.4 °C 7.7 °C 1019.9 hPa Calm     89 % 0.0 mm 7.0 W/m2 OVC
07:41 9.4 °C 7.7 °C 1019.9 hPa Calm     89 % 0.0 mm 11.0 W/m2 BKN
07:46 9.4 °C 7.7 °C 1019.9 hPa Calm     89 % 0.0 mm 16.0 W/m2 BKN
07:51 10.0 °C 8.3 °C 1019.9 hPa Calm     89 % 0.0 mm 19.0 W/m2 BKN
07:56 10.0 °C 8.3 °C 1019.9 hPa Calm     89 % 0.0 mm 25.0 W/m2 BKN
08:01 10.0 °C 8.3 °C 1019.9 hPa Calm     89 % 0.0 mm 30.0 W/m2 BKN
08:06 10.6 °C 9.0 °C 1019.9 hPa Calm     90 % 0.0 mm 35.0 W/m2 BKN
08:11 10.6 °C 9.0 °C 1019.9 hPa Calm     90 % 0.0 mm 40.0 W/m2 BKN
08:16 10.6 °C 9.0 °C 1019.9 hPa Calm     90 % 0.0 mm 46.0 W/m2 SCT
08:21 11.1 °C 9.6 °C 1019.9 hPa Calm     90 % 0.0 mm 53.0 W/m2 SCT
08:22 11.1 °C 9.6 °C 1019.9 hPa Calm     90 % 0.0 mm 53.0 W/m2 SCT
08:27 11.1 °C 9.4 °C 1019.9 hPa Calm     89 % 0.0 mm 67.0 W/m2 SCT
08:32 11.1 °C 9.6 °C 1019.9 hPa Calm     90 % 0.0 mm 72.0 W/m2 SCT
08:37 11.1 °C 9.4 °C 1019.9 hPa Calm     89 % 0.0 mm 72.0 W/m2 FEW
08:42 11.7 °C 9.9 °C 1019.9 hPa Calm     89 % 0.0 mm 72.0 W/m2 FEW
08:47 11.7 °C 9.9 °C 1019.9 hPa Calm     89 % 0.0 mm 70.0 W/m2 FEW
08:48 11.7 °C 9.7 °C 1019.9 hPa Calm     88 % 0.0 mm 70.0 W/m2 FEW
08:53 11.7 °C 9.9 °C 1019.9 hPa Calm     89 % 0.0 mm 72.0 W/m2 FEW
08:58 11.7 °C 9.7 °C 1019.9 hPa Calm     88 % 0.0 mm 83.0 W/m2 FEW
09:03 12.2 °C 10.3 °C 1019.9 hPa Calm     88 % 0.0 mm 111.0 W/m2 FEW
09:08 12.2 °C 10.3 °C 1019.9 hPa Calm     88 % 0.0 mm 144.0 W/m2 CLR
09:13 12.8 °C 10.7 °C 1019.9 hPa Calm     87 % 0.0 mm 178.0 W/m2 CLR
09:18 12.8 °C 10.7 °C 1019.9 hPa Calm     87 % 0.0 mm 211.0 W/m2 CLR
09:23 12.8 °C 10.5 °C 1019.9 hPa Calm     86 % 0.0 mm 183.0 W/m2 CLR
09:28 13.3 °C 10.9 °C 1019.9 hPa Calm     85 % 0.0 mm 156.0 W/m2 CLR
09:33 13.3 °C 10.7 °C 1019.5 hPa Calm     84 % 0.0 mm 162.0 W/m2 CLR
09:38 13.9 °C 10.9 °C 1019.9 hPa Calm     82 % 0.0 mm 190.0 W/m2 CLR
09:44 13.9 °C 10.7 °C 1019.5 hPa Calm     81 % 0.0 mm 204.0 W/m2 CLR
09:49 13.9 °C 10.7 °C 1019.5 hPa Calm     81 % 0.0 mm 308.0 W/m2 CLR
09:54 14.4 °C 11.1 °C 1019.5 hPa Calm     80 % 0.0 mm 432.0 W/m2 CLR
09:59 15.0 °C 11.0 °C 1019.5 hPa Calm     77 % 0.0 mm 366.0 W/m2 CLR
10:04 15.6 °C 10.9 °C 1019.5 hPa Calm     74 % 0.0 mm 383.0 W/m2 CLR
10:09 16.1 °C 11.1 °C 1019.5 hPa Calm     72 % 0.0 mm 352.0 W/m2 CLR
10:14 16.7 °C 11.4 °C 1019.5 hPa Calm     71 % 0.0 mm 360.0 W/m2 CLR
10:19 16.7 °C 11.2 °C 1019.5 hPa Calm     70 % 0.0 mm 295.0 W/m2 CLR
10:24 17.2 °C 11.3 °C 1019.5 hPa Calm     68 % 0.0 mm 427.0 W/m2 CLR
10:29 17.8 °C 11.8 °C 1019.5 hPa Calm     68 % 0.0 mm 376.0 W/m2 CLR
10:34 17.8 °C 11.3 °C 1019.2 hPa Calm     66 % 0.0 mm 353.0 W/m2 CLR
10:39 18.3 °C 11.4 °C 1019.2 hPa Calm     64 % 0.0 mm 401.0 W/m2 CLR
10:44 18.9 °C 12.2 °C 1019.2 hPa Calm     65 % 0.0 mm 390.0 W/m2 CLR
10:49 18.9 °C 11.7 °C 1019.2 hPa Calm     63 % 0.0 mm 404.0 W/m2 CLR
10:54 19.4 °C 11.9 °C 1019.2 hPa Calm     62 % 0.0 mm 353.0 W/m2 CLR
10:59 19.4 °C 11.7 °C 1018.8 hPa Calm     61 % 0.0 mm 253.0 W/m2 CLR
11:04 19.4 °C 11.9 °C 1019.2 hPa Calm     62 % 0.0 mm 229.0 W/m2 CLR
11:09 19.4 °C 11.5 °C 1018.8 hPa Calm     60 % 0.0 mm 244.0 W/m2 CLR
11:14 19.4 °C 11.5 °C 1018.5 hPa Calm     60 % 0.0 mm 239.0 W/m2 CLR
11:19 20.0 °C 11.7 °C 1018.8 hPa Calm     59 % 0.0 mm 264.0 W/m2 CLR
11:24 20.0 °C 11.7 °C 1018.5 hPa Calm     59 % 0.0 mm 350.0 W/m2 CLR
11:25 20.0 °C 11.7 °C 1018.5 hPa Calm     59 % 0.0 mm 397.0 W/m2 CLR
11:30 20.0 °C 11.2 °C 1018.5 hPa Calm     57 % 0.0 mm 304.0 W/m2 CLR
11:35 20.6 °C 11.4 °C 1018.5 hPa Calm     56 % 0.0 mm 520.0 W/m2 CLR
11:40 20.6 °C 11.2 °C 1018.2 hPa Calm     55 % 0.0 mm 547.0 W/m2 CLR
11:45 21.1 °C 10.9 °C 1018.2 hPa Calm     52 % 0.0 mm 538.0 W/m2 CLR
11:50 21.7 °C 11.4 °C 1018.2 hPa Calm     52 % 0.0 mm 582.0 W/m2 CLR
11:55 21.7 °C 11.1 °C 1018.2 hPa Calm     51 % 0.0 mm 538.0 W/m2 CLR
12:00 21.7 °C 11.1 °C 1018.5 hPa Calm     51 % 0.0 mm 577.0 W/m2 CLR
12:05 22.2 °C 11.0 °C 1018.5 hPa Calm     49 % 0.0 mm 587.0 W/m2 CLR
12:10 22.2 °C 11.0 °C 1018.8 hPa WSW 6.4 km/h 6.4 km/h 49 % 0.0 mm 759.0 W/m2 CLR
12:15 22.8 °C 11.5 °C 1018.8 hPa NNW 8.0 km/h 8.0 km/h 49 % 0.0 mm 564.0 W/m2 CLR
12:20 22.2 °C 11.3 °C 1018.8 hPa WSW 13.0 km/h 13.2 km/h 50 % 0.0 mm 461.0 W/m2 CLR
12:25 22.2 °C 11.9 °C 1018.5 hPa WSW 16.7 km/h 16.7 km/h 52 % 0.0 mm 443.0 W/m2 CLR
12:30 22.2 °C 11.9 °C 1018.5 hPa West 16.7 km/h 16.7 km/h 52 % 0.0 mm 461.0 W/m2 CLR
12:35 22.2 °C 11.9 °C 1018.5 hPa West 16.7 km/h 16.7 km/h 52 % 0.0 mm 471.0 W/m2 CLR
12:40 22.2 °C 11.9 °C 1018.5 hPa West 14.8 km/h 14.8 km/h 52 % 0.0 mm 478.0 W/m2 CLR
12:45 21.7 °C 11.7 °C 1018.5 hPa West 9.7 km/h 9.7 km/h 53 % 0.0 mm 478.0 W/m2 CLR
12:50 21.7 °C 11.4 °C 1018.5 hPa NW 5.6 km/h 5.6 km/h 52 % 0.0 mm 496.0 W/m2 CLR
12:55 22.2 °C 11.6 °C 1018.5 hPa NW 13.0 km/h 13.0 km/h 51 % 0.0 mm 524.0 W/m2 CLR
13:00 22.2 °C 11.9 °C 1018.5 hPa Calm     52 % 0.0 mm 531.0 W/m2 CLR
13:05 22.2 °C 11.0 °C 1018.2 hPa WSW 3.7 km/h 3.7 km/h 49 % 0.0 mm 654.0 W/m2 CLR
13:10 22.2 °C 11.0 °C 1018.2 hPa WNW 1.9 km/h 1.9 km/h 49 % 0.0 mm 489.0 W/m2 CLR
13:15 22.2 °C 10.7 °C 1017.8 hPa Calm     48 % 0.0 mm 541.0 W/m2 CLR
13:20 22.2 °C 10.4 °C 1017.8 hPa Calm     47 % 0.0 mm 431.0 W/m2 CLR
13:25 22.2 °C 10.1 °C 1017.5 hPa Calm     46 % 0.0 mm 722.0 W/m2 CLR
13:30 22.8 °C 11.2 °C 1017.5 hPa Calm     48 % 0.0 mm 652.0 W/m2 CLR
13:35 23.3 °C 11.4 °C 1017.5 hPa Calm     47 % 0.0 mm 824.0 W/m2 CLR
13:40 23.3 °C 11.1 °C 1017.5 hPa Calm     46 % 0.0 mm 828.0 W/m2 CLR
13:50 23.9 °C 11.6 °C 1017.2 hPa Calm     46 % 0.0 mm 874.0 W/m2 CLR
13:55 23.9 °C 11.6 °C 1017.2 hPa ENE 1.9 km/h   46 % 0.0 mm 765.0 W/m2 CLR
14:00 24.4 °C 11.4 °C 1017.2 hPa NNE 9.3 km/h 9.3 km/h 44 % 0.0 mm 933.0 W/m2 CLR
14:05 25.0 °C 11.9 °C 1017.2 hPa North 8.0 km/h 8.0 km/h 44 % 0.0 mm 1034.0 W/m2 CLR
14:10 25.0 °C 11.2 °C 1017.2 hPa Calm     42 % 0.0 mm 798.0 W/m2 CLR
14:15 25.6 °C 11.3 °C 1017.2 hPa Calm     41 % 0.0 mm 865.0 W/m2 CLR
14:20 25.6 °C 10.6 °C 1016.8 hPa Calm     39 % 0.0 mm 870.0 W/m2 CLR
14:25 25.6 °C 9.8 °C 1016.8 hPa Calm     37 % 0.0 mm 870.0 W/m2 CLR
14:30 25.6 °C 10.2 °C 1016.8 hPa Calm     38 % 0.0 mm 904.0 W/m2 CLR
14:32 25.6 °C 10.2 °C 1016.8 hPa Calm     38 % 0.0 mm 865.0 W/m2 CLR
14:37 25.6 °C 10.6 °C 1016.8 hPa NE 1.9 km/h   39 % 0.0 mm 965.0 W/m2 CLR
14:42 26.1 °C 10.7 °C 1016.8 hPa Calm     38 % 0.0 mm 496.0 W/m2 CLR
14:47 25.6 °C 9.4 °C 1016.8 hPa Calm     36 % 0.0 mm 503.0 W/m2 CLR
14:52 26.7 °C 10.8 °C 1016.8 hPa Calm     37 % 0.0 mm 1005.0 W/m2 CLR
14:57 26.7 °C 9.9 °C 1016.8 hPa NW 7.4 km/h 7.4 km/h 35 % 0.0 mm 566.0 W/m2 CLR
15:02 26.7 °C 10.3 °C 1016.5 hPa West 16.7 km/h 16.7 km/h 36 % 0.0 mm 786.0 W/m2 CLR
15:07 27.2 °C 10.0 °C 1016.5 hPa West 13.0 km/h 13.0 km/h 34 % 0.0 mm 779.0 W/m2 CLR
15:12 26.7 °C 9.5 °C 1016.5 hPa West 14.8 km/h 14.8 km/h 34 % 0.0 mm 536.0 W/m2 CLR
15:17 26.7 °C 9.1 °C 1016.5 hPa WNW 14.8 km/h 14.8 km/h 33 % 0.0 mm 515.0 W/m2 CLR
15:22 26.7 °C 9.1 °C 1016.5 hPa North 1.9 km/h 1.9 km/h 33 % 0.0 mm 476.0 W/m2 CLR
15:27 26.1 °C 8.6 °C 1016.1 hPa NW 5.6 km/h 5.6 km/h 33 % 0.0 mm 452.0 W/m2 CLR
15:32 26.1 °C 8.6 °C 1016.1 hPa WNW 5.6 km/h 5.6 km/h 33 % 0.0 mm 355.0 W/m2 CLR
15:37 26.1 °C 7.7 °C 1016.1 hPa West 13.0 km/h 13.0 km/h 31 % 0.0 mm 418.0 W/m2 CLR
15:42 26.1 °C 8.1 °C 1016.1 hPa West 13.0 km/h 13.0 km/h 32 % 0.0 mm 473.0 W/m2 CLR
15:47 26.1 °C 7.7 °C 1016.1 hPa Calm     31 % 0.0 mm 587.0 W/m2 CLR
15:52 26.7 °C 7.7 °C 1015.8 hPa West 13.0 km/h 13.0 km/h 30 % 0.0 mm 594.0 W/m2 CLR
15:57 26.7 °C 7.7 °C 1015.8 hPa SW 9.7 km/h 9.7 km/h 30 % 0.0 mm 647.0 W/m2 CLR
16:02 26.7 °C 8.6 °C 1015.8 hPa WNW 9.7 km/h 9.7 km/h 32 % 0.0 mm 643.0 W/m2 CLR
16:07 27.2 °C 8.1 °C 1015.8 hPa WNW 16.1 km/h 16.1 km/h 30 % 0.0 mm 610.0 W/m2 CLR
16:12 26.7 °C 6.7 °C 1015.8 hPa NW 14.5 km/h 14.5 km/h 28 % 0.0 mm 726.0 W/m2 CLR
16:17 27.2 °C 6.6 °C 1015.5 hPa West 18.5 km/h 18.5 km/h 27 % 0.0 mm 612.0 W/m2 CLR
16:22 27.2 °C 7.6 °C 1015.5 hPa West 12.9 km/h 12.9 km/h 29 % 0.0 mm 554.0 W/m2 CLR
16:27 26.7 °C 7.2 °C 1015.5 hPa WNW 13.0 km/h 13.0 km/h 29 % 0.0 mm 520.0 W/m2 CLR
16:32 26.7 °C 7.2 °C 1015.5 hPa West 12.9 km/h 12.9 km/h 29 % 0.0 mm 554.0 W/m2 CLR
16:37 27.2 °C 7.6 °C 1015.5 hPa WNW 11.3 km/h 11.3 km/h 29 % 0.0 mm 575.0 W/m2 CLR
16:42 27.2 °C 7.6 °C 1015.5 hPa WSW 8.0 km/h 8.0 km/h 29 % 0.0 mm 578.0 W/m2 CLR
16:47 27.2 °C 7.1 °C 1015.5 hPa WNW 16.7 km/h 16.7 km/h 28 % 0.0 mm 499.0 W/m2 CLR
16:52 27.2 °C 7.1 °C 1015.5 hPa West 20.4 km/h 20.4 km/h 28 % 0.0 mm 471.0 W/m2 CLR
16:57 26.7 °C 6.7 °C 1015.5 hPa WNW 14.8 km/h 14.8 km/h 28 % 0.0 mm 504.0 W/m2 CLR
17:02 27.2 °C 6.6 °C 1015.5 hPa WNW 18.5 km/h 18.5 km/h 27 % 0.0 mm 468.0 W/m2 CLR
17:07 26.7 °C 6.7 °C 1015.5 hPa WSW 11.3 km/h 11.3 km/h 28 % 0.0 mm 236.0 W/m2 CLR
17:12 26.7 °C 6.7 °C 1015.1 hPa West 14.5 km/h 14.5 km/h 28 % 0.0 mm 329.0 W/m2 CLR
17:17 26.7 °C 6.1 °C 1015.1 hPa West 16.1 km/h 16.1 km/h 27 % 0.0 mm 427.0 W/m2 CLR
17:22 26.7 °C 6.7 °C 1015.1 hPa West 18.5 km/h 18.5 km/h 28 % 0.0 mm 396.0 W/m2 CLR
17:27 26.7 °C 6.7 °C 1015.1 hPa West 14.8 km/h 14.8 km/h 28 % 0.0 mm 399.0 W/m2 CLR
17:32 26.7 °C 6.7 °C 1015.1 hPa West 11.1 km/h 11.1 km/h 28 % 0.0 mm 283.0 W/m2 CLR
17:37 26.7 °C 6.7 °C 1015.1 hPa West 13.0 km/h 13.0 km/h 28 % 0.0 mm 318.0 W/m2 CLR
17:42 26.7 °C 7.2 °C 1015.1 hPa West 13.0 km/h 13.0 km/h 29 % 0.0 mm 343.0 W/m2 CLR
17:47 26.7 °C 6.7 °C 1015.1 hPa West 9.7 km/h 9.7 km/h 28 % 0.0 mm 454.0 W/m2 CLR
17:52 27.2 °C 7.1 °C 1015.1 hPa WSW 3.2 km/h 5.3 km/h 28 % 0.0 mm 394.0 W/m2 CLR
17:57 27.2 °C 6.6 °C 1015.1 hPa Calm     27 % 0.0 mm 313.0 W/m2 CLR
18:02 27.2 °C 7.1 °C 1014.8 hPa Calm     28 % 0.0 mm 320.0 W/m2 CLR
18:07 26.7 °C 6.1 °C 1014.8 hPa WNW 5.6 km/h 5.6 km/h 27 % 0.0 mm 285.0 W/m2 CLR
18:12 26.7 °C 6.7 °C 1014.8 hPa Calm     28 % 0.0 mm 246.0 W/m2 CLR
18:17 26.7 °C 6.7 °C 1014.8 hPa WNW 9.7 km/h 9.7 km/h 28 % 0.0 mm 373.0 W/m2 CLR
18:22 27.2 °C 6.6 °C 1014.8 hPa Calm     27 % 0.0 mm 378.0 W/m2 CLR
18:27 27.2 °C 6.6 °C 1014.8 hPa WSW 11.1 km/h 11.1 km/h 27 % 0.0 mm 343.0 W/m2 CLR
18:32 27.2 °C 7.1 °C 1014.8 hPa WNW 5.6 km/h   28 % 0.0 mm 332.0 W/m2 CLR
18:37 27.2 °C 6.6 °C 1014.8 hPa Calm   1.1 km/h 27 % 0.0 mm 308.0 W/m2 CLR
18:42 26.7 °C 6.1 °C 1014.4 hPa Calm     27 % 0.0 mm 218.0 W/m2 CLR
18:47 26.7 °C 6.7 °C 1014.8 hPa Calm     28 % 0.0 mm 149.0 W/m2 CLR
18:49 26.7 °C 6.7 °C 1014.8 hPa Calm     28 % 0.0 mm 190.0 W/m2 CLR
18:54 26.1 °C 6.2 °C 1014.4 hPa WSW 3.7 km/h   28 % 0.0 mm 274.0 W/m2 CLR
18:59 26.1 °C 6.2 °C 1014.4 hPa Calm     28 % 0.0 mm 179.0 W/m2 CLR
19:04 26.1 °C 5.7 °C 1014.4 hPa Calm     27 % 0.0 mm 234.0 W/m2 CLR
19:09 26.1 °C 5.7 °C 1014.4 hPa WNW 9.3 km/h 9.3 km/h 27 % 0.0 mm 216.0 W/m2 CLR
19:14 26.1 °C 5.7 °C 1014.4 hPa Calm     27 % 0.0 mm 209.0 W/m2 CLR
19:19 26.1 °C 5.7 °C 1014.4 hPa Calm     27 % 0.0 mm 88.0 W/m2 CLR
19:24 25.6 °C 5.2 °C 1014.4 hPa Calm     27 % 0.0 mm 120.0 W/m2 CLR
19:29 25.6 °C 5.2 °C 1014.4 hPa Calm     27 % 0.0 mm 148.0 W/m2 CLR
19:34 25.0 °C 5.2 °C 1014.4 hPa SW 5.6 km/h 5.6 km/h 28 % 0.0 mm 86.0 W/m2 CLR
19:39 25.6 °C 5.7 °C 1014.4 hPa WSW 7.4 km/h 7.4 km/h 28 % 0.0 mm 84.0 W/m2 FEW
19:44 25.0 °C 5.2 °C 1014.4 hPa West 5.6 km/h 5.6 km/h 28 % 0.0 mm 53.0 W/m2 SCT
19:50 24.4 °C 5.2 °C 1014.4 hPa Calm     29 % 0.0 mm 33.0 W/m2 BKN
19:55 23.3 °C 4.3 °C 1014.4 hPa Calm     29 % 0.0 mm 21.0 W/m2 BKN
20:00 22.2 °C 3.8 °C 1014.4 hPa Calm     30 % 0.0 mm 19.0 W/m2 BKN
20:06 21.7 °C 3.3 °C 1014.4 hPa Calm     30 % 0.0 mm 19.0 W/m2 BKN
20:11 21.1 °C 3.3 °C 1014.4 hPa Calm     31 % 0.0 mm 16.0 W/m2 BKN
20:16 21.1 °C 4.2 °C 1014.4 hPa Calm     33 % 0.0 mm 12.0 W/m2 BKN
20:21 20.6 °C 3.3 °C 1014.4 hPa Calm     32 % 0.0 mm 9.0 W/m2 BKN
20:25 20.6 °C 3.7 °C 1014.4 hPa Calm     33 % 0.0 mm 0.0 W/m2 OVC
20:31 20.6 °C 4.6 °C 1014.4 hPa Calm     35 % 0.0 mm 0.0 W/m2 OVC
20:36 20.0 °C 4.1 °C 1014.4 hPa Calm     35 % 0.0 mm 0.0 W/m2 OVC
20:41 20.0 °C 4.4 °C 1014.4 hPa Calm     36 % 0.0 mm 0.0 W/m2 CLR
20:46 19.4 °C 3.9 °C 1014.4 hPa Calm     36 % 0.0 mm 0.0 W/m2 CLR
20:51 18.9 °C 4.3 °C 1014.4 hPa Calm     38 % 0.0 mm 0.0 W/m2 CLR
20:56 18.9 °C 5.0 °C 1014.4 hPa Calm     40 % 0.0 mm 0.0 W/m2 CLR
21:01 18.9 °C 6.1 °C 1014.4 hPa Calm     43 % 0.0 mm 0.0 W/m2 CLR
21:06 18.3 °C 5.5 °C 1014.4 hPa Calm     43 % 0.0 mm 0.0 W/m2 CLR
21:11 18.3 °C 6.8 °C 1014.4 hPa Calm     47 % 0.0 mm 0.0 W/m2 CLR
21:16 18.3 °C 5.8 °C 1014.4 hPa Calm     44 % 0.0 mm 0.0 W/m2 CLR
21:21 18.9 °C 7.9 °C 1014.8 hPa Calm     49 % 0.0 mm 0.0 W/m2 CLR
21:26 18.9 °C 8.2 °C 1014.8 hPa Calm     50 % 0.0 mm 0.0 W/m2 CLR
21:31 18.3 °C 7.1 °C 1014.8 hPa Calm     48 % 0.0 mm 0.0 W/m2 CLR
21:36 18.3 °C 7.1 °C 1014.8 hPa Calm     48 % 0.0 mm 0.0 W/m2 CLR
21:41 18.3 °C 7.1 °C 1014.8 hPa Calm     48 % 0.0 mm 0.0 W/m2 CLR
21:46 18.3 °C 7.1 °C 1014.8 hPa Calm     48 % 0.0 mm 0.0 W/m2 CLR
21:51 18.3 °C 7.7 °C 1015.1 hPa Calm     50 % 0.0 mm 0.0 W/m2 CLR
21:56 18.3 °C 7.7 °C 1015.1 hPa Calm     50 % 0.0 mm 0.0 W/m2 CLR
22:01 18.3 °C 8.3 °C 1015.1 hPa Calm     52 % 0.0 mm 0.0 W/m2 CLR
22:06 18.9 °C 8.8 °C 1015.1 hPa Calm     52 % 0.0 mm 0.0 W/m2 CLR
22:11 18.9 °C 9.1 °C 1015.5 hPa Calm     53 % 0.0 mm 0.0 W/m2 CLR
22:16 18.3 °C 8.8 °C 1015.5 hPa Calm     54 % 0.0 mm 0.0 W/m2 CLR
22:21 18.3 °C 8.6 °C 1015.5 hPa Calm     53 % 0.0 mm 0.0 W/m2 CLR
22:26 18.3 °C 8.6 °C 1015.5 hPa Calm     53 % 0.0 mm 0.0 W/m2 CLR
22:31 17.8 °C 8.3 °C 1015.8 hPa Calm     54 % 0.0 mm 0.0 W/m2 CLR
22:36 17.8 °C 8.3 °C 1015.8 hPa Calm     54 % 0.0 mm 0.0 W/m2 CLR
22:41 17.8 °C 8.1 °C 1015.8 hPa Calm     53 % 0.0 mm 0.0 W/m2 CLR
22:46 18.3 °C 8.8 °C 1015.8 hPa Calm     54 % 0.0 mm 0.0 W/m2 CLR
22:51 18.3 °C 8.8 °C 1015.8 hPa Calm     54 % 0.0 mm 0.0 W/m2 CLR
22:56 18.3 °C 8.8 °C 1016.1 hPa Calm     54 % 0.0 mm 0.0 W/m2 CLR
23:01 18.3 °C 8.8 °C 1016.1 hPa Calm     54 % 0.0 mm 0.0 W/m2 CLR
23:06 18.3 °C 9.9 °C 1016.1 hPa Calm     58 % 0.0 mm 0.0 W/m2 CLR
23:11 17.8 °C 9.9 °C 1016.5 hPa Calm     60 % 0.0 mm 0.0 W/m2 CLR
23:16 17.8 °C 9.7 °C 1016.5 hPa Calm     59 % 0.0 mm 0.0 W/m2 CLR
23:21 17.8 °C 9.7 °C 1016.5 hPa Calm     59 % 0.0 mm 0.0 W/m2 CLR
23:26 17.2 °C 9.6 °C 1016.5 hPa Calm     61 % 0.0 mm 0.0 W/m2 CLR
23:31 17.2 °C 8.9 °C 1016.5 hPa SW 7.4 km/h 7.4 km/h 58 % 0.3 mm 0.0 W/m2 RA
23:36 17.2 °C 8.6 °C 1016.5 hPa Calm     57 % 0.5 mm 0.0 W/m2 RA
23:41 17.2 °C 10.8 °C 1016.5 hPa SW 3.7 km/h   66 % 0.5 mm 0.0 W/m2 RA
23:46 16.7 °C 11.4 °C 1016.1 hPa Calm     71 % 0.5 mm 0.0 W/m2 CLR
23:51 16.7 °C 10.5 °C 1015.8 hPa Calm     67 % 0.5 mm 0.0 W/m2 CLR
23:56 16.7 °C 10.1 °C 1015.8 hPa Calm     65 % 0.5 mm 0.0 W/m2 CLR
Lo Temps de Massalio
Compliments of Weather Underground - 1.25 mb